Location: Plainartige
(45.6866°N, 1.7993°E)
Time: 16:31:44
(UTC+00:00)

Tiros 1 - Pass Details

Date: 01 June 2022
Orbit: 629 x 663 km, 48.4° (Epoch: 05 July)

Event Time Altitude Azimuth Distance (km) Brightness Sun altitude
Rises 22:42:54 0° 241° (WSW) 2,906 10.4 -20.4°
Reaches altitude 10° 22:45:13 10° 240° (WSW) 2,000 9.5 -20.5°
Maximum altitude 22:49:48 73° 156° (SSE) 661 6.9 -20.8°
Drops below altitude 10° 22:54:25 10° 72° (ENE) 2,014 9.7 -21.0°
Sets 22:56:45 0° 71° (ENE) 2,928 10.6 -21.1°
